Location: Lake Crest
(37.6062°N, 88.9176°W)
Time: 06:07:58
(UTC+00:00)

Cosmos 1092 Rocket - Pass Details

Date: 15 December 2019
Orbit: 953 x 996 km, 83.0° (Epoch: 17 January)

Event Time Altitude Azimuth Distance (km) Brightness Sun altitude
Exits shadow 10:50:23 54° 321° (NW) 1,153 4.0 -25.5°
Maximum altitude 10:51:38 67° 267° (W) 1,030 3.8 -25.2°
Drops below altitude 10° 10:57:40 10° 186° (S) 2,672 6.3 -24.1°
Sets 11:00:10 0° 183° (S) 3,616 7.1 -23.6°
